Vertical_Velocity
1 -3 -0 -1 -3 0 2 -1 -3 3 5 1 3 3 2 -3 0 -7 6 6 -5 -4 30 1 17 3 4 -1 -3 1 19 -1 15 7 -5 -15 -16 3 3 14 0 4 8 3 4 -34 -19 14 5 -5 15 -5 2 2
-3 0 -0 -3 -3 1 2 0 2 5 2 1 4 1 -1 -3 3 12 -7 10 16 -4 7 16 17 4 -7 11 27 14 32 5 5 -8 -12 3 2 15 19 -21 3 -37 -12 10 7 -6 6 3 -6 -5 5 -4 -5 -3
-1 -0 -2 -2 -3 0 -0 1 3 2 1 -0 -1 3 6 7 2 -3 7 7 2 8 17 3 5 10 6 -2 11 -0 8 -1 -19 5 -3 -0 -17 25 -15 2 18 -3 13 -8 16 -0 5 4 2 -3 3 -0 1 3
-0 -0 -2 -2 -2 -1 1 2 3 2 4 7 9 8 15 8 1 2 -2 3 6 8 6 18 -6 -3 -1 4 3 -0 19 8 -2 0 5 -14 5 11 7 10 2 7 20 5 1 -11 2 -0 1 -4 5 2 -0 -1
-0 -1 -0 -2 -4 -0 2 1 6 4 4 -0 4 -5 7 23 12 9 4 6 4 0 15 5 3 -7 6 2 10 10 8 -1 -7 19 -9 -3 -0 -0 3 9 -16 11 5 3 -3 3 4 -3 -3 -0 -3 -4 -1 -0
1 -0 -0 0 -2 -2 0 -0 5 1 3 5 -0 2 13 3 -7 1 -9 -13 3 11 14 15 -4 -5 14 -5 5 7 8 -2 -3 8 4 -3 1 2 -8 -8 5 0 0 9 -3 6 3 -2 1 -3 0 -4 1 2
0 -1 0 1 1 -0 -0 4 1 3 4 7 4 -2 -2 -3 3 4 2 18 0 -0 -8 0 0 -6 17 12 3 -4 4 -1 4 1 2 0 5 9 -2 -9 9 4 5 3 0 2 -1 -2 -4 -4 2 -7 -7 -12
-1 -0 -1 -0 0 2 1 1 2 1 7 11 13 2 -3 -6 5 -1 6 -6 -1 2 -6 11 -14 14 13 -9 -4 -5 -12 5 -2 3 5 -2 1 -5 -6 -1 -1 1 1 -1 3 3 -2 -3 1 5 -4 -10 -2 6
-0 -1 -1 -1 -1 0 1 1 0 3 0 10 15 10 15 1 7 5 6 12 10 5 53 39 29 29 5 2 1 42 20 17 7 24 -8 -3 5 0 8 7 1 -5 2 -1 -1 1 -0 -3 -0 -0 -1 -1 1 -3
0 0 -0 -0 -2 -2 -1 2 0 1 5 -0 15 19 29 -14 -2 14 14 11 21 40 15 14 30 16 16 22 8 6 2 3 -2 22 15 -5 -6 5 11 5 2 -5 -7 -1 5 2 -2 -2 -1 -1 -3 -2 1 -4
-1 -1 -0 1 0 -1 -1 -1 0 -0 -0 6 -1 7 13 13 3 -0 -2 5 -3 -12 1 -1 8 1 -3 2 7 5 4 1 7 -1 9 -3 -8 -1 7 -9 -8 -2 -1 -1 -1 -2 -1 -2 -1 -1 -2 -3 -1 -4
-1 -3 -2 -0 1 -1 -2 -1 -0 -1 -1 -1 4 8 6 6 8 12 -3 -1 -10 -8 -8 -7 -5 3 2 -0 3 -10 -9 1 -8 3 2 -17 2 0 0 -1 1 0 -0 -0 -1 -1 -1 -1 -0 -2 -3 -4 -2 -3
-0 -1 -3 -2 -1 -1 -1 -3 -1 -0 1 1 -2 -5 1 6 8 9 4 -1 3 1 1 2 -4 -2 -2 -2 1 2 -2 -6 -1 -8 -11 -0 -3 -2 -3 3 4 1 2 -0 0 -0 -3 -0 -1 -2 -3 -4 -3 -1
-0 -0 0 0 0 -0 -0 -2 -3 -1 -1 -3 -0 -1 0 -2 -3 -4 2 6 9 9 10 6 5 7 11 7 3 5 2 4 2 3 5 2 -3 -2 2 4 2 -0 -1 -1 0 -1 -1 -4 -3 -1 0 -1 -1 -2
-1 -0 -1 -0 -0 1 -0 -3 -3 -2 -2 -2 -1 0 -0 1 1 2 0 -2 -4 -4 -0 2 1 4 3 5 7 4 3 3 4 1 0 -4 -5 -5 -3 0 1 1 -1 -1 1 1 -2 -2 1 -1 -4 -3 -3 -3
-1 -1 -1 -0 0 -1 -1 -0 -0 -1 -1 -2 -2 -4 -3 -3 -2 -2 -2 0 2 3 3 1 -2 -1 -1 0 -1 -0 2 -0 -2 -2 0 1 1 2 2 2 0 0 -0 0 -1 -1 -1 -2 -3 -4 -6 -2 -2 -1
-1 -1 -1 -1 -1 -1 -0 -1 -1 -2 -3 -2 -2 -3 -3 -3 -5 -5 -5 -3 -2 -1 0 -0 1 -0 3 2 3 5 3 -2 -2 1 1 -1 -1 -2 -2 -0 2 1 2 0 -2 -4 -6 -4 -4 -2 -2 0 1 -3
-0 -0 -1 -1 -0 0 -1 -1 -1 -1 -2 -2 -2 -2 -4 -3 -1 -1 -2 -2 -5 -7 -5 -4 -6 -5 -3 1 0 -1 -2 -2 -3 -3 -2 0 1 0 0 1 1 -1 -0 -2 -1 -2 -4 -2 0 -2 -2 -2 -4 -4
2 1 -1 -1 -1 -0 -0 -1 -1 -1 -0 -1 -2 -2 -2 -2 -3 -2 -1 -0 -0 -0 -2 -3 -1 3 5 6 2 1 -0 -1 -0 -0 -0 0 1 2 2 -1 0 -0 -1 -2 0 -5 -3 -2 -4 -2 -1 -3 -2 -1
2 2 0 -1 -1 -1 -1 -0 -1 -1 0 1 0 -2 -2 -1 -1 -2 -2 -3 -2 -1 1 2 0 -4 -4 -4 -4 -5 -4 -0 -1 -1 -0 -2 -2 1 0 -2 -3 1 -1 -1 2 -3 -3 -4 -2 -2 -2 -2 -1 -1
1 1 1 -1 -1 -2 -1 -2 0 1 -2 -0 -1 -1 -1 -2 -2 -3 -3 -2 -1 2 0 -4 -2 -2 -1 -1 1 1 1 -0 1 0 -1 -2 -0 1 1 -2 -2 -1 -0 0 -2 -2 -2 -1 0 0 -1 -0 0 0
-1 1 1 1 -1 -0 -0 -2 -0 -0 -2 -0 1 0 -2 -3 -1 -0 -0 0 2 -1 -4 -6 -2 -0 -1 -1 -1 0 2 3 2 2 2 1 1 0 -1 0 1 1 0 -1 -0 -0 0 0 0 0 0 0 -0 -1
1 0 1 -0 -3 -2 3 -2 -1 -1 -1 -2 -1 0 -1 -1 -2 -1 -1 -2 -3 -7 -8 -1 1 2 1 0 0 1 1 -0 -0 0 -1 -1 -1 0 0 1 1 1 1 -1 -1 -1 -2 -1 -1 -1 -1 -1 -1 -1
1 0 -1 -2 -1 -0 2 0 -1 -2 -0 -1 -1 -0 -1 1 -1 -2 -3 -2 0 1 -0 -0 1 -1 -0 2 1 -1 -2 -2 -1 -0 -0 -0 -1 -1 -0 1 -0 -1 -1 -1 -1 -1 -0 -0 -2 -2 -1 -1 -1 -1
1 -2 -1 1 0 -1 -1 -1 -1 -1 -1 -3 -0 -0 -2 1 0 -2 -2 1 1 0 -1 -1 0 -2 -2 -0 0 1 1 -0 -0 1 1 0 0 0 -0 -0 -0 0 -0 -1 -1 -1 -1 -1 -1 -1 -1 -1 -1 -1
2 -3 -1 3 3 -2 1 0 -1 -0 -1 -1 4 2 -3 -1 0 -2 0 -1 -1 -1 -1 -2 -4 -3 -2 -0 1 1 -0 -0 2 1 -0 -0 -0 0 -0 -1 -1 -1 -1 -0 -1 -1 -1 -1 -0 -0 -0 -0 -1 -1
-1 3 4 3 3 1 -2 -2 0 -0 0 -1 1 -2 -1 1 -3 -1 1 -0 0 1 0 -1 0 -2 -3 -1 -1 0 4 1 -3 -1 2 -0 -0 -1 -1 -1 -0 -0 1 -0 -1 -0 0 -1 -1 -1 0 -0 -0 -0
2 5 2 -1 1 -1 -1 1 1 -1 -1 1 0 -1 -0 -0 -4 -1 1 1 -0 -2 -2 -1 0 -0 -1 0 -1 -1 -2 -3 -1 2 3 1 -1 -0 -0 -1 0 0 0 1 1 1 -0 -1 -0 0 1 -0 -2 -2
5 2 -1 0 -1 1 2 2 2 1 -0 -2 -0 0 1 -2 -2 1 -0 0 -1 -1 -2 -1 1 1 0 1 3 0 1 2 2 0 -1 -1 1 1 1 -0 1 1 1 1 0 -0 0 1 1 0 -1 -2 -1 -1
1 -2 -2 -3 0 4 2 -2 -1 -1 -0 -1 -0 -0 -0 -1 0 -0 -1 0 0 0 0 -1 -1 1 -0 0 -0 1 1 0 -0 -0 -0 -1 -0 1 -0 0 1 0 0 0 0 1 1 1 0 -1 -1 -1 -1 -1
-2 -0 0 -0 4 1 -1 -2 -1 1 1 -1 -0 1 1 -0 1 2 -0 -0 0 1 1 1 1 -0 -0 0 1 1 2 1 -0 0 1 0 -1 -1 0 0 0 1 1 1 1 1 0 -0 -0 -0 0 -0 -1 -1
-0 0 -0 -0 3 -3 -3 -1 -1 -0 -0 1 2 1 0 1 0 1 -0 1 0 -0 1 1 0 1 1 0 -0 -1 -1 0 0 -0 1 0 -0 -0 -0 -0 -0 1 0 -0 -0 -0 -0 -1 -1 -0 0 -0 -1 -2
1 -0 -1 -0 4 0 2 1 -1 0 1 2 1 -1 -2 -3 0 3 -0 -1 -1 1 -0 -0 0 0 -0 0 1 1 1 0 0 0 -0 -0 0 1 1 -0 0 0 -0 -0 0 1 -0 -1 -1 -0 -1 -1 -2 -3
Height
5387 5380 5374 5368 5362 5355 5350 5346 5342 5338 5335 5334 5334 5335 5338 5342 5348 5354 5359 5366 5372 5385 5409 5423 5446 5463 5477 5492 5505 5525 5537 5548 5557 5562 5571 5584 5593 5602 5603 5609 5615 5622 5626 5628 5633 5635 5628 5638 5644 5645 5647 5643 5644 5644
5382 5376 5370 5364 5359 5353 5347 5340 5334 5330 5329 5329 5328 5330 5332 5336 5341 5347 5350 5359 5370 5376 5400 5424 5442 5453 5470 5489 5504 5516 5532 5541 5553 5561 5568 5576 5585 5589 5594 5597 5603 5608 5613 5618 5622 5625 5626 5624 5626 5627 5628 5627 5626 5628
5380 5374 5367 5362 5357 5352 5346 5339 5333 5330 5329 5327 5326 5325 5325 5328 5334 5341 5347 5354 5362 5379 5402 5418 5435 5451 5465 5479 5495 5506 5521 5536 5548 5559 5559 5563 5572 5579 5582 5587 5593 5595 5601 5604 5608 5612 5613 5615 5615 5614 5613 5614 5613 5612
5378 5372 5366 5361 5356 5351 5346 5339 5334 5332 5329 5327 5323 5321 5319 5320 5326 5334 5342 5350 5362 5381 5398 5417 5430 5446 5462 5475 5488 5502 5519 5531 5542 5545 5546 5553 5562 5568 5573 5577 5580 5583 5588 5592 5594 5598 5601 5604 5603 5602 5600 5601 5601 5601
5376 5371 5366 5361 5357 5352 5347 5341 5337 5334 5330 5326 5322 5319 5317 5317 5320 5330 5342 5351 5367 5385 5404 5421 5434 5447 5461 5470 5484 5499 5511 5521 5527 5533 5535 5543 5551 5556 5562 5566 5570 5572 5577 5579 5581 5585 5587 5589 5590 5592 5591 5591 5591 5590
5375 5371 5367 5362 5358 5353 5349 5345 5340 5336 5333 5329 5323 5318 5309 5305 5310 5325 5337 5354 5371 5390 5408 5421 5432 5442 5457 5470 5482 5493 5504 5511 5517 5524 5526 5534 5542 5547 5549 5553 5559 5561 5565 5567 5569 5572 5575 5576 5578 5578 5579 5581 5582 5581
5375 5371 5368 5364 5360 5356 5352 5348 5345 5341 5338 5335 5331 5327 5316 5314 5324 5335 5346 5368 5381 5394 5410 5424 5433 5442 5453 5467 5477 5485 5497 5505 5511 5513 5519 5525 5529 5533 5538 5544 5548 5551 5555 5556 5558 5559 5562 5564 5565 5566 5567 5568 5568 5568
5375 5372 5368 5366 5362 5360 5356 5352 5350 5347 5344 5344 5343 5341 5342 5342 5347 5356 5370 5385 5395 5406 5417 5428 5434 5445 5452 5462 5471 5482 5490 5497 5498 5502 5508 5514 5521 5524 5530 5534 5536 5540 5544 5546 5547 5549 5550 5551 5551 5552 5553 5553 5553 5552
5374 5372 5369 5367 5364 5363 5360 5357 5354 5353 5351 5351 5353 5355 5359 5365 5369 5374 5382 5393 5403 5411 5417 5423 5431 5441 5451 5457 5467 5471 5478 5484 5491 5496 5500 5508 5511 5515 5520 5523 5526 5529 5531 5533 5535 5536 5538 5540 5541 5541 5540 5541 5541 5539
5373 5371 5369 5368 5366 5364 5363 5362 5359 5357 5357 5358 5361 5364 5367 5371 5378 5386 5393 5395 5400 5403 5411 5419 5429 5439 5445 5451 5460 5467 5470 5476 5482 5488 5492 5496 5502 5506 5508 5513 5517 5517 5518 5521 5524 5525 5526 5527 5527 5528 5528 5526 5524 5522
5373 5370 5369 5367 5367 5366 5365 5364 5363 5363 5362 5362 5363 5368 5371 5375 5379 5385 5391 5395 5400 5404 5410 5415 5422 5429 5436 5442 5450 5457 5462 5468 5471 5477 5480 5484 5491 5495 5497 5501 5504 5505 5507 5510 5512 5513 5514 5514 5513 5513 5512 5511 5509 5507
5373 5370 5369 5368 5367 5366 5365 5365 5365 5365 5365 5366 5366 5369 5372 5375 5379 5384 5388 5393 5397 5403 5408 5412 5417 5423 5428 5435 5441 5446 5451 5456 5459 5466 5469 5475 5483 5484 5486 5488 5491 5493 5495 5497 5500 5501 5501 5500 5500 5499 5497 5495 5492 5489
5373 5371 5369 5368 5367 5366 5365 5364 5365 5366 5367 5368 5369 5370 5370 5374 5377 5380 5383 5388 5393 5399 5403 5408 5412 5416 5420 5426 5431 5436 5440 5445 5451 5454 5458 5464 5466 5470 5474 5477 5479 5481 5482 5484 5486 5487 5487 5487 5486 5485 5482 5478 5475 5472
5371 5370 5369 5369 5368 5367 5366 5365 5364 5365 5365 5367 5369 5369 5371 5373 5375 5377 5380 5384 5390 5394 5398 5402 5406 5411 5414 5418 5422 5426 5429 5434 5438 5443 5447 5450 5454 5459 5463 5465 5466 5467 5470 5472 5472 5473 5473 5473 5471 5469 5466 5463 5460 5457
5369 5369 5368 5368 5368 5368 5368 5367 5366 5366 5366 5366 5367 5367 5368 5371 5373 5376 5379 5382 5384 5386 5390 5393 5397 5402 5405 5409 5413 5416 5420 5423 5427 5430 5434 5438 5443 5447 5450 5452 5454 5456 5458 5460 5460 5459 5458 5456 5454 5452 5451 5450 5449 5448
5368 5368 5368 5368 5368 5367 5368 5368 5368 5368 5368 5368 5369 5368 5369 5371 5372 5373 5374 5377 5381 5384 5387 5390 5392 5395 5398 5402 5405 5408 5411 5413 5418 5422 5426 5430 5434 5437 5439 5442 5443 5445 5446 5445 5444 5443 5443 5443 5443 5443 5443 5443 5441 5439
5366 5367 5368 5367 5367 5367 5367 5368 5368 5368 5369 5369 5369 5370 5371 5372 5373 5374 5376 5377 5378 5381 5383 5386 5389 5392 5395 5398 5401 5403 5405 5408 5411 5415 5418 5422 5425 5427 5430 5432 5432 5433 5434 5434 5434 5435 5436 5436 5435 5435 5435 5434 5432 5430
5364 5365 5366 5366 5367 5367 5367 5367 5367 5368 5368 5369 5370 5371 5371 5372 5373 5374 5376 5377 5379 5381 5383 5385 5387 5390 5393 5395 5396 5398 5400 5402 5405 5408 5412 5414 5417 5419 5421 5422 5424 5426 5427 5428 5429 5430 5429 5428 5426 5426 5427 5426 5425 5422
5360 5361 5363 5363 5364 5365 5366 5367 5367 5367 5367 5368 5369 5370 5371 5372 5372 5374 5375 5376 5377 5379 5381 5383 5385 5387 5389 5390 5392 5394 5395 5398 5401 5403 5405 5407 5410 5411 5413 5416 5418 5419 5422 5422 5423 5423 5423 5423 5422 5421 5421 5420 5418 5417
5354 5356 5359 5361 5362 5363 5364 5365 5366 5366 5366 5367 5367 5367 5369 5370 5371 5372 5373 5374 5376 5377 5379 5380 5381 5382 5383 5385 5387 5389 5392 5395 5397 5399 5401 5403 5405 5406 5409 5411 5413 5414 5415 5415 5417 5417 5417 5416 5416 5416 5416 5415 5414 5412
5349 5351 5353 5356 5358 5360 5361 5362 5363 5364 5364 5364 5364 5364 5365 5366 5367 5368 5369 5371 5373 5375 5376 5375 5376 5378 5379 5381 5384 5386 5388 5391 5393 5395 5397 5399 5400 5402 5404 5406 5408 5408 5409 5411 5412 5413 5413 5413 5414 5413 5412 5411 5410 5407
5342 5345 5348 5350 5353 5355 5357 5358 5359 5360 5362 5362 5362 5362 5362 5362 5363 5364 5365 5366 5369 5370 5370 5370 5371 5374 5376 5378 5380 5383 5385 5388 5389 5391 5393 5395 5397 5399 5401 5402 5403 5405 5407 5408 5409 5409 5410 5410 5410 5409 5408 5406 5404 5401
5334 5338 5341 5344 5347 5350 5354 5353 5355 5356 5357 5359 5359 5360 5359 5359 5360 5360 5361 5361 5361 5361 5362 5365 5367 5370 5373 5375 5377 5380 5382 5384 5387 5389 5390 5392 5393 5395 5397 5398 5400 5402 5403 5404 5404 5405 5405 5405 5404 5403 5402 5400 5397 5394
5326 5331 5334 5337 5341 5345 5347 5348 5350 5352 5353 5354 5355 5356 5356 5356 5356 5356 5356 5356 5358 5358 5358 5359 5362 5365 5368 5371 5374 5375 5378 5380 5382 5384 5385 5386 5386 5388 5391 5394 5396 5397 5399 5400 5400 5401 5401 5401 5400 5399 5397 5395 5392 5389
5319 5322 5326 5330 5334 5339 5341 5342 5344 5347 5348 5350 5351 5353 5353 5353 5353 5353 5353 5353 5352 5352 5351 5352 5355 5359 5362 5366 5368 5371 5374 5376 5377 5379 5380 5381 5383 5386 5388 5391 5392 5394 5395 5396 5397 5397 5397 5396 5396 5394 5393 5390 5387 5383
5310 5315 5319 5323 5327 5331 5334 5336 5338 5341 5343 5346 5347 5348 5349 5350 5350 5350 5350 5350 5349 5347 5345 5346 5349 5353 5358 5362 5365 5368 5370 5372 5374 5376 5378 5380 5382 5384 5386 5387 5389 5390 5391 5392 5393 5393 5393 5392 5392 5390 5388 5385 5382 5378
5302 5307 5312 5316 5320 5324 5327 5328 5331 5335 5338 5340 5342 5343 5345 5346 5346 5347 5347 5347 5346 5345 5344 5345 5349 5353 5356 5359 5362 5364 5367 5369 5372 5375 5377 5379 5380 5381 5383 5384 5385 5386 5388 5389 5389 5390 5389 5389 5387 5385 5383 5380 5377 5372
5295 5300 5305 5309 5312 5316 5319 5322 5325 5328 5332 5334 5336 5338 5340 5342 5343 5344 5344 5345 5345 5345 5344 5346 5349 5352 5356 5359 5360 5362 5365 5368 5371 5373 5375 5376 5377 5378 5380 5380 5382 5383 5384 5385 5385 5385 5385 5384 5383 5381 5378 5375 5372 5367
5288 5292 5297 5301 5305 5309 5313 5316 5318 5321 5324 5327 5330 5333 5335 5336 5339 5340 5341 5342 5343 5344 5344 5346 5348 5351 5354 5357 5359 5360 5363 5366 5368 5370 5371 5373 5374 5376 5376 5377 5378 5379 5380 5380 5380 5380 5380 5379 5378 5376 5374 5371 5367 5363
5279 5283 5288 5292 5297 5301 5305 5307 5310 5313 5316 5320 5324 5327 5329 5331 5334 5335 5337 5339 5340 5341 5343 5344 5346 5348 5351 5354 5356 5358 5360 5362 5364 5366 5367 5369 5371 5372 5372 5373 5374 5374 5375 5375 5375 5375 5375 5374 5373 5371 5369 5366 5363 5358
5269 5274 5279 5283 5289 5292 5296 5299 5303 5306 5309 5313 5317 5320 5323 5325 5328 5330 5332 5334 5336 5337 5339 5342 5343 5345 5348 5350 5353 5355 5357 5358 5360 5362 5363 5365 5366 5367 5368 5368 5369 5370 5370 5370 5370 5370 5370 5369 5368 5367 5365 5362 5358 5354
5261 5265 5270 5274 5279 5282 5286 5290 5294 5298 5302 5305 5309 5313 5316 5319 5322 5324 5326 5328 5330 5332 5334 5336 5339 5341 5343 5345 5348 5350 5352 5354 5356 5357 5358 5359 5360 5362 5363 5363 5364 5364 5365 5365 5365 5366 5365 5365 5364 5363 5361 5358 5355 5351
5251 5256 5260 5265 5269 5273 5277 5282 5286 5290 5293 5297 5301 5305 5308 5312 5315 5318 5320 5322 5324 5326 5329 5331 5333 5335 5337 5340 5342 5345 5346 5348 5350 5352 5353 5354 5355 5356 5357 5358 5359 5359 5360 5360 5361 5361 5361 5360 5360 5359 5356 5354 5351 5347